CZ-3B DEB, 40815

Orbit data source: Space-Track

CZ-3B DEB, 40815 is space debris in HEO originally from a launch on Sat, 04 Sep 2010 UTC launched from the Xichang Space Center, China (XSC). Debris objects in space refer to the collection of defunct objects orbiting the Earth. Examples of debris include non-operational satellites, rocket bodies, and fragments generated from explosions, collisions, or faulty payload assembly.

Loading next visibility...
Identifier
40815, 2010-042Y
Orbit
HEO
Country
Flag of CNCN / PRC
Related business
Manufacturer
CALT
Mission
Spacecraft
Bus & Motor
Unknown
Mass
Unknown
Launch date (UTC)
2010-09-04 (15 years ago)
Launch vehicle
Unknown
Launch site
Xichang Space Center, China (XSC)
Object type
Payload
Rocket body
Debris
Shape & HBR
Unknown
Radar Cross Section
Medium (>0.1 m² and <1 m²)

Expand to show TLE details & history
Last TLE update: 1 week ago

TLE from 1 week ago
0 CZ-3B DEB
1 40815U 10042Y   25255.13779539 -.00000086  00000-0  16128-2 0  9993
2 40815  25.4093 208.1920 7392683  90.9588 345.9697  1.91034381  1466
Epoch: 2025-09-12T03:18Z
TLE epoch observation values (Epoch: 2025-09-12T03:18:25.521Z)
Latitude
-0.00001°
Longitude
167.03981°
Altitude
6,246.409 km
Speed
6.972 km/s
True Right ascension
13h 52m 08s
True Declination
0° 00' 00"
Sunlit
Object was in daylight at epoch
Visualization orbit readout
Latitude
Unknown
Longitude
Unknown
Altitude
Unknown
Speed
Unknown
Apparent Right ascension
Unknown
Apparent Declination
Unknown
Sunlit
N/A
Visualization observer readout
Local Sidereal Time
15:22:46
Azimuth
Unknown
Elevation
Unknown
Doppler factor
Unknown
Orbital elements
Apogee altitude
41,347.811 km
Perigee altitude
776.405 km
Semi-major axis
27,440.245 km
Eccentricity
0.73927
Inclination
25.4093°
RAAN
208.192°
Arg. of periapsis
90.9588°
True anomaly
269.27638°
Mean anomaly
345.9697°
Eccentric anomaly
317.17954°
Mean motion
0.47749 °/min
Orbital period
753.95 mins
BSTAR
0.0016128
Loading maneuver chart data...
Computing Atmospheric mass density...
Loading historical data...
Loading historical data...
Loading historical data...
Loading historical data...
Loading historical data...
Loading historical data...
Loading historical data...

Documentation

Showing up to 5 results
|